Location: Newark
(52.2090°N, 4.1550°W)
Time: 04:35:46
(UTC+00:00)

Explorer 7 - Pass Details

Date: 27 September 2019
Orbit: 485 x 680 km, 50.3° (Epoch: 18 October)

Event Time Altitude Azimuth Distance (km) Brightness Sun altitude
Rises 21:25:28 0° 241° (WSW) 2,750 10.6 -29.4°
Enters shadow 21:26:58 - 238° (WSW) 2,161 10.0 -29.5°
Reaches altitude 10° 21:27:41 10° 236° (SW) 1,888 - -29.6°
Maximum altitude 21:31:53 51° 161° (SSE) 767 - -30.1°
Drops below altitude 10° 21:36:22 10° 86° (E) 2,013 - -30.6°
Sets 21:38:48 0° 81° (E) 2,953 - -30.8°
